Tracking 28052 objects as of 22-Sep-2023
HD Live streaming from Space Station
objects crossing your sky now

INTASAT

Track INTASAT now!
10-day predictions
INTASAT is classified as:


NORAD ID: 7531
Int'l Code: 1974-089C
Perigee: 1,448.5 km
Apogee: 1,465.6 km
Inclination: 102.0 °
Period: 114.9 minutes
Semi major axis: 7828 km
RCS: 0.5293 m2 (medium)
Launch date: November 15, 1974
Source: Spain (SPN)
Launch site: AIR FORCE WESTERN TEST RANGE (AFWTR)
Your satellite tracking list
Your tracking list is empty




NASA's NSSDC Master Catalog

Two Line Element Set (TLE):
1  7531U 74089C   23265.18237566 -.00000024  00000-0  14023-3 0  9990
2  7531 101.9566 251.9031 0010905 248.7147 172.1699 12.53488741235339
Source of the keplerian elements: AFSPC